Stations météo

réclame
Mon MeteoGroup
Beauvechain, Belgique (6458): Température de l'air & dewpoint: 20.04.2018 11:00:00 - 26.04.2018 11:00:00 (CEST)Beauvechain, Belgique (6458): Vitesse du vent & gusts: 20.04.2018 11:00:00 - 26.04.2018 11:00:00 (CEST)Beauvechain, Belgique (6458): Direction du vent: 20.04.2018 11:00:00 - 26.04.2018 11:00:00 (CEST)Beauvechain, Belgique (6458): reduced air pressure: 20.04.2018 11:00:00 - 26.04.2018 11:00:00 (CEST)Beauvechain, Belgique (6458): visibility: 20.04.2018 11:00:00 - 26.04.2018 11:00:00 (CEST)
Date & Time tt [°C] td [°C] ff [km/h] ff [knt] fx [km/h] fx [knt] dd ppp [hPa] vv [km]
26.04.2018 11:00:00 10,5 4,4 22 12 - - WSW 1018,1 20
26.04.2018 10:00:00 9,2 4,9 22 12 40 21 W 1017,7 20
26.04.2018 09:00:00 8,6 4,5 22 12 36 19 WSW 1017,5 20
26.04.2018 08:00:00 8,1 4,8 22 12 - - WSW 1017,1 20
26.04.2018 07:00:00 8,1 4,9 22 12 40 21 WSW 1016,3 20
26.04.2018 06:00:00 8,5 5,0 25 14 40 21 WSW 1015,7 20
26.04.2018 05:00:00 8,4 5,1 22 12 - - WSW 1015,6 19
26.04.2018 04:00:00 8,8 5,1 25 14 40 21 WSW 1015,2 19
26.04.2018 03:00:00 8,8 4,8 25 14 43 23 WSW 1015,2 20
26.04.2018 02:00:00 8,3 4,3 25 14 - - SW 1015,5 20
26.04.2018 01:00:00 8,7 3,7 25 14 40 21 SW 1015,3 20
26.04.2018 00:00:00 9,1 2,6 22 12 36 19 WSW 1015,2 20
25.04.2018 23:00:00 9,5 1,5 22 12 - - WSW 1015,2 20
25.04.2018 22:00:00 10,1 1,6 18 10 40 21 WSW 1015,1 20
25.04.2018 21:00:00 11,0 2,1 25 14 40 21 W 1014,3 20
25.04.2018 20:00:00 12,5 2,3 25 14 - - W 1013,5 20
25.04.2018 19:00:00 13,3 3,2 29 16 43 23 W 1013,2 20
25.04.2018 18:00:00 13,8 4,1 22 12 36 19 W 1013,1 18
25.04.2018 17:00:00 14,6 4,7 22 12 - - W 1013,2 18
25.04.2018 16:00:00 15,4 3,6 18 10 40 21 W 1013,3 18
25.04.2018 15:00:00 13,9 5,7 25 14 40 21 W 1013,7 18
25.04.2018 14:00:00 14,1 7,7 18 10 - - WSW 1013,6 18
25.04.2018 13:00:00 12,2 6,8 18 10 32 18 W 1013,5 18
25.04.2018 12:00:00 12,6 6,6 18 10 32 18 W 1013,3 18
25.04.2018 11:00:00 12,0 7,6 22 12 - - W 1012,8 15
25.04.2018 10:00:00 12,1 8,9 18 10 32 18 W 1012,2 15
25.04.2018 09:00:00 11,5 9,9 18 10 43 23 W 1011,7 12
25.04.2018 08:00:00 10,9 10,2 22 12 - - W 1011,2 4,0
25.04.2018 07:00:00 11,6 9,3 29 16 47 25 WSW 1010,5 15
25.04.2018 06:00:00 12,8 8,6 25 14 40 21 WSW 1010,0 15
25.04.2018 05:00:00 13,1 9,4 22 12 - - WSW 1010,0 20
25.04.2018 04:00:00 13,3 9,3 22 12 36 19 WSW 1010,1 20
25.04.2018 03:00:00 13,8 9,4 22 12 29 16 WSW 1010,3 20
25.04.2018 02:00:00 14,0 10,0 18 10 - - WSW 1010,7 20
25.04.2018 01:00:00 15,1 9,3 18 10 25 14 SSW 1010,8 20
25.04.2018 00:00:00 15,3 9,5 14 8 25 14 SSW 1011,5 25
24.04.2018 23:00:00 15,6 9,3 14 8 - - SW 1012,5 25
24.04.2018 22:00:00 15,5 9,9 11 6 22 12 SW 1013,0 25
24.04.2018 21:00:00 15,8 9,6 14 8 29 16 SW 1013,3 25
24.04.2018 20:00:00 16,0 9,5 22 12 - - SW 1013,7 25
24.04.2018 19:00:00 15,8 8,9 18 10 32 18 SW 1014,3 25
24.04.2018 18:00:00 15,8 8,6 25 14 36 19 SW 1015,2 25
24.04.2018 17:00:00 15,1 8,2 25 14 - - SW 1015,7 20
24.04.2018 16:00:00 14,3 7,9 18 10 29 16 WSW 1016,8 20
24.04.2018 15:00:00 13,6 7,7 18 10 32 18 WSW 1017,7 20
24.04.2018 14:00:00 13,1 7,8 22 12 - - WSW 1018,1 20
24.04.2018 13:00:00 13,1 8,3 22 12 36 19 WSW 1018,5 20
24.04.2018 12:00:00 12,4 8,0 22 12 32 18 SW 1018,6 20
24.04.2018 11:00:00 10,6 6,9 18 10 - - SW 1018,6 20
24.04.2018 10:00:00 10,0 6,3 22 12 29 16 SW 1018,3 15
24.04.2018 09:00:00 9,7 6,2 18 10 29 16 SW 1018,0 15
24.04.2018 08:00:00 9,1 5,0 22 12 - - SW 1018,1 20
24.04.2018 07:00:00 8,6 4,7 22 12 32 18 SW 1017,6 20
24.04.2018 06:00:00 8,2 4,5 22 12 29 16 SW 1017,3 20
24.04.2018 05:00:00 7,9 4,5 18 10 - - SW 1017,8 20
24.04.2018 04:00:00 7,8 4,4 22 12 25 14 SW 1018,0 20
24.04.2018 03:00:00 7,8 4,3 14 8 22 12 SSW 1018,5 20
24.04.2018 02:00:00 8,2 4,3 14 8 - - SW 1018,7 20
24.04.2018 01:00:00 8,7 4,4 14 8 25 14 WSW 1019,1 20
24.04.2018 00:00:00 9,3 4,4 14 8 29 16 WSW 1019,1 20
23.04.2018 23:00:00 10,4 4,6 18 10 - - WSW 1018,7 20
23.04.2018 22:00:00 11,6 4,9 11 6 25 14 WSW 1018,5 20
23.04.2018 21:00:00 12,3 5,6 14 8 29 16 W 1018,1 20
23.04.2018 20:00:00 14,1 5,9 18 10 - - WSW 1017,5 20
23.04.2018 19:00:00 15,4 6,0 18 10 32 18 WSW 1017,6 20
23.04.2018 18:00:00 15,9 6,3 14 8 32 18 W 1017,5 20
23.04.2018 17:00:00 16,4 6,8 18 10 - - W 1017,2 20
23.04.2018 16:00:00 16,2 6,5 22 12 32 18 W 1017,3 20
23.04.2018 15:00:00 17,0 5,3 18 10 36 19 WSW 1017,1 20
23.04.2018 14:00:00 16,8 7,5 14 8 - - W 1017,2 20
23.04.2018 13:00:00 15,3 7,2 18 10 29 16 W 1017,5 18
23.04.2018 12:00:00 14,2 7,5 22 12 29 16 W 1017,6 18
23.04.2018 11:00:00 14,1 8,7 22 12 - - WSW 1017,0 18
23.04.2018 10:00:00 13,6 8,8 14 8 18 10 W 1016,5 18
23.04.2018 09:00:00 12,4 8,7 11 6 22 12 WSW 1016,1 17
23.04.2018 08:00:00 11,4 7,6 11 6 - - W 1015,8 15
23.04.2018 07:00:00 12,1 6,6 11 6 22 12 WSW 1015,2 12
23.04.2018 06:00:00 12,9 6,8 11 6 25 14 WSW 1014,7 12
23.04.2018 05:00:00 13,0 7,1 18 10 - - SW 1014,2 20
23.04.2018 04:00:00 14,3 9,1 14 8 25 14 WSW 1013,8 20
23.04.2018 03:00:00 15,1 10,1 14 8 18 10 WSW 1013,3 20
23.04.2018 02:00:00 15,6 10,3 11 6 - - SW 1013,2 20
23.04.2018 01:00:00 16,7 10,4 14 8 22 12 SSW 1013,2 20
23.04.2018 00:00:00 17,3 10,3 7 4 22 12 SW 1012,2 20
22.04.2018 23:00:00 18,3 10,8 11 6 - - W 1012,3 20
22.04.2018 22:00:00 19,7 9,9 7 4 14 8 SW 1011,2 20
22.04.2018 21:00:00 21,2 9,5 11 6 32 18 SW 1010,7 20
22.04.2018 20:00:00 23,3 8,4 18 10 - - SW 1010,2 20
22.04.2018 19:00:00 24,3 9,0 29 16 43 23 WSW 1010,0 20
22.04.2018 18:00:00 25,1 10,3 29 16 47 25 SW 1009,8 18
22.04.2018 17:00:00 24,3 12,2 29 16 - - SW 1009,8 20
22.04.2018 16:00:00 25,6 10,6 29 16 40 21 SW 1009,7 20
22.04.2018 15:00:00 26,4 12,2 22 12 36 19 SSW 1010,2 20
22.04.2018 14:00:00 25,0 12,0 18 10 - - S 1010,7 20
22.04.2018 13:00:00 23,5 12,2 18 10 29 16 S 1011,2 8
22.04.2018 12:00:00 24,3 8,8 14 8 22 12 S 1011,2 19
22.04.2018 11:00:00 18,5 11,1 4 2 - - N 1011,7 10
22.04.2018 10:00:00 17,3 12,0 11 6 14 8 S 1013,3 9
22.04.2018 09:00:00 16,3 11,4 11 6 14 8 SW 1013,6 8
22.04.2018 08:00:00 13,1 9,9 7 4 - - SW 1013,8 8
22.04.2018 07:00:00 11,1 8,4 4 2 4 2 N 1013,8 9
22.04.2018 06:00:00 13,3 9,4 4 2 7 4 N 1014,0 10
22.04.2018 05:00:00 13,7 9,2 4 2 - - N 1014,6 13
22.04.2018 04:00:00 14,0 9,2 4 2 7 4 N 1015,2 16
22.04.2018 03:00:00 15,3 9,5 4 2 7 4 N 1015,6 17
22.04.2018 02:00:00 15,7 9,2 4 2 - - N 1016,2 18
22.04.2018 01:00:00 16,9 9,2 7 4 14 8 E 1016,6 19
22.04.2018 00:00:00 17,1 9,4 7 4 11 6 E 1017,3 20
21.04.2018 23:00:00 17,7 9,5 7 4 - - ENE 1017,8 19
21.04.2018 22:00:00 18,5 9,8 7 4 11 6 N 1018,1 18
21.04.2018 21:00:00 19,7 8,9 7 4 11 6 NE 1018,0 19
21.04.2018 20:00:00 22,1 8,4 7 4 - - N 1018,0 20
21.04.2018 19:00:00 23,3 7,6 7 4 18 10 NE 1018,2 19
21.04.2018 18:00:00 23,4 9,1 11 6 18 10 NNE 1018,7 17
21.04.2018 17:00:00 23,3 10,1 11 6 - - NE 1019,3 13
21.04.2018 16:00:00 22,4 11,2 7 4 14 8 NE 1020,2 12
21.04.2018 15:00:00 22,1 11,6 7 4 22 12 NE 1020,7 9
21.04.2018 14:00:00 21,0 12,2 9 5 - - NE 1021,3 7
21.04.2018 13:00:00 19,5 11,5 7 4 14 8 NNE 1022,1 6
21.04.2018 12:00:00 18,6 11,6 7 4 11 6 NE 1022,6 7
21.04.2018 11:00:00 16,5 11,7 4 2 - - N 1022,8 4,1
21.04.2018 10:00:00 14,2 10,8 7 4 11 6 NE 1023,0 2,7
21.04.2018 09:00:00 12,0 9,5 4 2 7 4 N 1023,1 2,4
21.04.2018 08:00:00 10,8 9,2 4 2 - - N 1023,2 2,0
21.04.2018 07:00:00 10,1 9,0 4 2 4 2 N 1022,7 1,4
21.04.2018 06:00:00 10,6 9,2 4 2 7 4 N 1022,2 1,8
21.04.2018 05:00:00 11,5 9,4 4 2 - - N 1022,3 2,4
21.04.2018 04:00:00 12,3 9,5 4 2 7 4 N 1022,3 3,4
21.04.2018 03:00:00 13,8 9,7 4 2 7 4 N 1022,7 4,8
21.04.2018 02:00:00 14,1 10,0 4 2 - - N 1023,0 6
21.04.2018 01:00:00 15,6 10,2 4 2 7 4 N 1022,8 11
21.04.2018 00:00:00 16,2 9,5 4 2 7 4 N 1022,7 19
20.04.2018 23:00:00 18,0 8,3 4 2 - - N 1022,7 20
20.04.2018 22:00:00 19,6 5,1 4 2 7 4 N 1022,6 20
20.04.2018 21:00:00 21,2 5,6 4 2 14 8 N 1022,0 20
20.04.2018 20:00:00 23,1 8,4 7 4 - - NNW 1021,6 20
20.04.2018 19:00:00 24,6 9,8 11 6 22 12 NNW 1021,6 20
20.04.2018 18:00:00 25,9 10,7 11 6 22 12 W 1021,5 20
20.04.2018 17:00:00 25,9 10,0 14 8 - - WNW 1021,8 20
20.04.2018 16:00:00 26,8 11,2 14 8 25 14 W 1022,2 20
20.04.2018 15:00:00 26,1 11,7 11 6 29 16 WSW 1023,0 20
20.04.2018 14:00:00 26,3 11,2 11 6 - - WSW 1022,8 18
20.04.2018 13:00:00 25,9 12,4 11 6 18 10 WSW 1023,2 18
20.04.2018 12:00:00 24,9 13,0 7 4 14 8 W 1023,5 20
20.04.2018 11:00:00 23,6 11,9 7 4 - - SW 1023,5 20

tt = Température de l'air
td = dewpoint
ff = Vitesse du vent
fx = gusts
dd = Direction du vent
ppp = reduced air pressure
vv = visibility

stations d'obs. à proximité